When you browse on this site, cookies collect data to enhance your experience and personalize the content and advertising you see.
Visit our Privacy Policy to learn more. By continuing to use the site, you agree to this use of cookies and data.
  • In Portugal
  • List of Countries
  • For 7 days
  • Water Temperature
  • Satellite Maps
  • Weather Map
  • Weather Widgets
  • user-avatar
    Login

    Hourly Weather Trun

    Today, 18 February, Monday

    Time Temperature Precipitation Wind Pressure Humidity
    00:00 -6°C° 0.1 mm 5 mps 722 mmHg 92%
    01:00 -6°C° 0.1 mm 5 mps 722 mmHg 92%
    02:00 -6°C° 0.2 mm 5 mps 721 mmHg 92%
    03:00 -6°C° 0.2 mm 5 mps 721 mmHg 92%
    04:00 -7°C° 0 mm 4 mps 721 mmHg 93%
    05:00 -7°C° 0.3 mm 4 mps 720 mmHg 93%
    06:00 -7°C° 0.3 mm 4 mps 720 mmHg 94%
    07:00 -6°C° 0.3 mm 3 mps 720 mmHg 94%
    08:00 -5°C° 0.3 mm 3 mps 720 mmHg 94%
    09:00 -5°C° 0.3 mm 3 mps 720 mmHg 93%
    10:00 -5°C° 0.3 mm 3 mps 720 mmHg 93%
    11:00 -4°C° 0.2 mm 3 mps 721 mmHg 91%
    12:00 -3°C° 0.2 mm 2 mps 721 mmHg 90%
    13:00 -2°C° 0.2 mm 2 mps 721 mmHg 89%
    14:00 0°C° 0.2 mm 1 mps 721 mmHg 90%
    15:00 0°C° 0.2 mm 1 mps 722 mmHg 90%
    16:00 -1°C° 0.2 mm 0 mps 722 mmHg 91%
    17:00 -1°C° 0.2 mm 1 mps 722 mmHg 92%
    18:00 -2°C° 0.2 mm 1 mps 723 mmHg 93%
    19:00 -2°C° 0.2 mm 1 mps 723 mmHg 95%
    20:00 -5°C° 0.1 mm 2 mps 724 mmHg 95%
    21:00 -5°C° 0.1 mm 2 mps 724 mmHg 95%
    22:00 -6°C° 0.1 mm 3 mps 725 mmHg 95%
    23:00 -8°C° 0.2 mm 4 mps 726 mmHg 93%

    Tomorrow, 19 February, Tuesday

    Time Temperature Precipitation Wind Pressure Humidity
    00:00 -10°C° 0.2 mm 5 mps 726 mmHg 90%
    01:00 -12°C° 0.2 mm 7 mps 727 mmHg 87%
    02:00 -13°C° 0 mm 7 mps 728 mmHg 87%
    03:00 -14°C° 0 mm 7 mps 728 mmHg 87%
    04:00 -15°C° 0 mm 7 mps 729 mmHg 87%
    05:00 -16°C° 0 mm 6 mps 730 mmHg 86%
    06:00 -17°C° 0 mm 6 mps 731 mmHg 86%
    07:00 -18°C° 0 mm 6 mps 731 mmHg 85%
    08:00 -18°C° 0 mm 6 mps 732 mmHg 85%
    09:00 -20°C° 0 mm 6 mps 733 mmHg 85%
    10:00 -20°C° 0 mm 6 mps 734 mmHg 85%
    11:00 -20°C° 0 mm 6 mps 734 mmHg 86%
    12:00 -18°C° 0 mm 6 mps 735 mmHg 86%
    13:00 -18°C° 0 mm 5 mps 735 mmHg 87%
    14:00 -18°C° 0 mm 5 mps 736 mmHg 87%
    15:00 -17°C° 0 mm 4 mps 736 mmHg 87%
    16:00 -17°C° 0 mm 4 mps 737 mmHg 88%
    17:00 -17°C° 0 mm 3 mps 737 mmHg 90%
    18:00 -19°C° 0 mm 3 mps 738 mmHg 92%
    19:00 -19°C° 0 mm 2 mps 738 mmHg 94%
    20:00 -20°C° 0 mm 2 mps 739 mmHg 94%
    21:00 -20°C° 0 mm 2 mps 739 mmHg 94%
    22:00 -18°C° 0 mm 1 mps 739 mmHg 95%
    23:00 -18°C° 0 mm 1 mps 739 mmHg 94%

    Day after tomorrow, 20 February, Wednesday

    Time Temperature Precipitation Wind Pressure Humidity
    00:00 -19°C° 0 mm 1 mps 740 mmHg 94%
    01:00 -19°C° 0 mm 1 mps 740 mmHg 94%
    02:00 -19°C° 0 mm 1 mps 740 mmHg 94%
    03:00 -20°C° 0 mm 1 mps 740 mmHg 95%
    04:00 -21°C° 0 mm 1 mps 740 mmHg 95%
    05:00 -21°C° 0 mm 1 mps 740 mmHg 95%
    06:00 -21°C° 0 mm 1 mps 740 mmHg 94%
    07:00 -24°C° 0 mm 2 mps 740 mmHg 94%
    08:00 -23°C° 0 mm 2 mps 740 mmHg 92%
    09:00 -20°C° 0 mm 2 mps 741 mmHg 91%
    10:00 -21°C° 0 mm 3 mps 741 mmHg 90%
    11:00 -19°C° 0 mm 3 mps 741 mmHg 90%
    12:00 -18°C° 0 mm 4 mps 740 mmHg 91%
    13:00 -17°C° 0 mm 4 mps 740 mmHg 91%
    14:00 -16°C° 0 mm 4 mps 740 mmHg 91%
    15:00 -16°C° 0 mm 4 mps 740 mmHg 92%
    16:00 -17°C° 0 mm 5 mps 739 mmHg 92%
    17:00 -17°C° 0 mm 5 mps 739 mmHg 93%
    18:00 -17°C° 0 mm 5 mps 739 mmHg 93%
    19:00 -17°C° 0 mm 6 mps 739 mmHg 93%
    20:00 -16°C° 0.1 mm 6 mps 738 mmHg 92%
    21:00 -16°C° 0.1 mm 6 mps 738 mmHg 92%
    22:00 -15°C° 0.1 mm 6 mps 737 mmHg 91%
    23:00 -15°C° 0.1 mm 6 mps 737 mmHg 91%

    21 February, Thursday

    Time Temperature Precipitation Wind Pressure Humidity
    00:00 -14°C° 0.1 mm 7 mps 736 mmHg 91%
    01:00 -14°C° 0.1 mm 7 mps 736 mmHg 90%
    02:00 -14°C° 0.1 mm 7 mps 735 mmHg 91%
    03:00 -12°C° 0.1 mm 6 mps 735 mmHg 92%
    04:00 -12°C° 0.1 mm 6 mps 735 mmHg 92%
    05:00 -11°C° 0.3 mm 6 mps 735 mmHg 92%
    06:00 -11°C° 0.3 mm 6 mps 734 mmHg 92%
    07:00 -10°C° 0.3 mm 6 mps 734 mmHg 93%
    08:00 -10°C° 0.2 mm 6 mps 734 mmHg 93%
    09:00 -9°C° 0.2 mm 6 mps 734 mmHg 92%
    10:00 -9°C° 0.2 mm 6 mps 735 mmHg 92%
    11:00 -9°C° 0.2 mm 6 mps 735 mmHg 92%
    12:00 -8°C° 0.2 mm 6 mps 735 mmHg 92%
    13:00 -8°C° 0.2 mm 6 mps 735 mmHg 92%
    14:00 -8°C° 0.2 mm 6 mps 735 mmHg 91%
    15:00 -8°C° 0.2 mm 6 mps 735 mmHg 91%
    16:00 -8°C° 0.2 mm 6 mps 735 mmHg 91%
    17:00 -8°C° 0.2 mm 6 mps 735 mmHg 91%
    18:00 -8°C° 0.2 mm 6 mps 735 mmHg 91%
    19:00 -8°C° 0.2 mm 6 mps 735 mmHg 92%
    20:00 -8°C° 0.2 mm 6 mps 735 mmHg 92%
    21:00 -8°C° 0.2 mm 6 mps 735 mmHg 92%
    22:00 -9°C° 0.2 mm 6 mps 735 mmHg 92%
    23:00 -7°C° 0.3 mm 5 mps 735 mmHg 92%

    22 February, Friday

    Time Temperature Precipitation Wind Pressure Humidity
    00:00 -7°C° 0.3 mm 5 mps 735 mmHg 92%
    01:00 -7°C° 0.3 mm 5 mps 735 mmHg 92%
    02:00 -6°C° 0.2 mm 5 mps 735 mmHg 92%
    03:00 -6°C° 0.2 mm 5 mps 735 mmHg 93%
    04:00 -5°C° 0.2 mm 5 mps 734 mmHg 93%
    05:00 -5°C° 0.2 mm 5 mps 734 mmHg 92%
    06:00 -5°C° 0.2 mm 5 mps 734 mmHg 92%
    07:00 -5°C° 0.2 mm 6 mps 734 mmHg 91%
    08:00 -5°C° 0.4 mm 6 mps 734 mmHg 91%
    09:00 -5°C° 0.4 mm 6 mps 733 mmHg 90%
    10:00 -4°C° 0.4 mm 6 mps 733 mmHg 90%
    11:00 -4°C° 0.2 mm 6 mps 733 mmHg 90%
    12:00 -4°C° 0.2 mm 6 mps 733 mmHg 90%
    13:00 -4°C° 0.2 mm 6 mps 733 mmHg 89%
    14:00 -4°C° 0.4 mm 6 mps 732 mmHg 90%
    15:00 -4°C° 0.4 mm 5 mps 732 mmHg 91%
    16:00 -4°C° 0.4 mm 5 mps 732 mmHg 92%
    17:00 -3°C° 0.2 mm 4 mps 732 mmHg 91%
    18:00 -4°C° 0.2 mm 4 mps 732 mmHg 91%
    19:00 -4°C° 0.2 mm 4 mps 732 mmHg 91%
    20:00 -5°C° 0 mm 4 mps 732 mmHg 91%
    21:00 -5°C° 0 mm 4 mps 733 mmHg 92%
    22:00 -7°C° 0 mm 4 mps 733 mmHg 93%
    23:00 -8°C° 0 mm 4 mps 733 mmHg 93%

    23 February, Saturday

    Time Temperature Precipitation Wind Pressure Humidity
    00:00 -9°C° 0 mm 4 mps 734 mmHg 93%
    01:00 -10°C° 0 mm 4 mps 734 mmHg 93%
    02:00 -10°C° 0 mm 3 mps 734 mmHg 94%
    03:00 -9°C° 0 mm 2 mps 735 mmHg 95%
    04:00 -9°C° 0 mm 2 mps 735 mmHg 96%
    05:00 -9°C° 0 mm 2 mps 736 mmHg 96%
    06:00 -9°C° 0 mm 2 mps 737 mmHg 96%
    07:00 -8°C° 0 mm 2 mps 737 mmHg 96%
    08:00 -10°C° 0 mm 3 mps 738 mmHg 96%
    09:00 -12°C° 0 mm 3 mps 739 mmHg 95%
    10:00 -14°C° 0 mm 3 mps 740 mmHg 95%
    11:00 -13°C° 0.1 mm 3 mps 741 mmHg 94%
    12:00 -13°C° 0.1 mm 3 mps 741 mmHg 92%
    13:00 -13°C° 0.1 mm 3 mps 742 mmHg 91%
    14:00 -13°C° 0.1 mm 3 mps 742 mmHg 91%
    15:00 -13°C° 0.1 mm 3 mps 743 mmHg 90%
    16:00 -13°C° 0.1 mm 3 mps 743 mmHg 90%
    17:00 -14°C° 0.1 mm 3 mps 744 mmHg 92%
    18:00 -14°C° 0.1 mm 3 mps 744 mmHg 93%
    19:00 -14°C° 0.1 mm 2 mps 745 mmHg 95%
    20:00 -15°C° 0 mm 2 mps 745 mmHg 96%
    21:00 -15°C° 0 mm 2 mps 745 mmHg 96%
    22:00 -16°C° 0 mm 2 mps 746 mmHg 97%
    23:00 -17°C° 0 mm 2 mps 746 mmHg 97%
    Show more